Spencer, VA

11:45 PM EST on February 07, 2016 (GMT -0500)
Blue Ridge

Weather History for KMTV - December, 2011

Change the Weather History Date:

Thursday, December 15, 2011

  Actual Average (KGSO) Record (KGSO)
Temperature  
Mean Temperature 52 °F 41 °F  
Max Temperature 69 °F 51 °F 73 °F (1971)
Min Temperature 35 °F 32 °F 6 °F (1958)
Degree Days  
Heating Degree Days 13 24  
Month to date heating degree days 331  
Since 1 July heating degree days 1011  
Cooling Degree Days 0 0  
Month to date cooling degree days 0  
Year to date cooling degree days 1483  
Growing Degree Days 2 (Base 50)    
Moisture  
Dew Point 48 °F    
Average Humidity 84    
Maximum Humidity 100    
Minimum Humidity 56    
Precipitation  
Precipitation 0.00 in 0.09 in 1.89 in (1972)
Month to date precipitation 1.48  
Year to date precipitation 40.70  
Snow  
Snow 0.00 in 0.00 in 1.70 in (1945)
Month to date snowfall 0.2  
Since 1 July snowfall 0.3  
Snow Depth -    
Sea Level Pressure  
Sea Level Pressure 30.16 in    
Wind  
Wind Speed 2 mph (SW)    
Max Wind Speed 10 mph    
Max Gust Speed 20 mph    
Visibility 9 miles    
Events      
T = Trace of Precipitation, MM = Missing Value Source: NWS Daily Summary

Daily Weather History Graph

Daily Weather History Graph

Search for Another Location

Airport or City:

Trip Planner

Search our weather history database for the weather conditions in past years. The results will help you decide how hot, cold, wet, or windy it might be!

Date:

Astronomy

Dec. 15, 2011 Rise Set
Actual Time 7:24 AM EST 5:05 PM EST
Civil Twilight 6:56 AM EST 5:34 PM EST
Nautical Twilight 6:23 AM EST 6:06 PM EST
Astronomical Twilight 5:52 AM EST 6:38 PM EST
Moon 10:22 PM EST (12/15) 10:46 AM EST (12/15)
Length of Visible Light 10h 38m
Length of Day
9h 40m
Waning Gibbous, 75% of the Moon is Illuminated
Dec 15
Waning Gibbous
Dec 17
Last Quarter
Dec 24
New
Jan 1
First Quarter
Jan 9
Full

Hourly Weather History & Observations

Time (EST) Temp. Dew Point Humidity Pressure Visibility Wind Dir Wind Speed Gust Speed Precip Events Conditions
12:15 AM 39.2 °F 39.2 °F 100% 30.29 in 10.0 mi Calm Calm - N/A   Clear
12:35 AM 39.2 °F 39.2 °F 100% 30.29 in 10.0 mi Calm Calm - N/A   Clear
12:55 AM 39.2 °F 39.2 °F 100% 30.27 in 10.0 mi Calm Calm - N/A   Clear
1:35 AM 39.2 °F 39.2 °F 100% 30.27 in 10.0 mi Calm Calm - N/A   Mostly Cloudy
1:55 AM 39.2 °F 39.2 °F 100% 30.27 in 10.0 mi Calm Calm - N/A   Scattered Clouds
2:15 AM 39.2 °F 39.2 °F 100% 30.27 in 10.0 mi Calm Calm - N/A   Scattered Clouds
2:35 AM 37.4 °F 37.4 °F 100% 30.26 in 10.0 mi Calm Calm - N/A   Clear
2:55 AM 37.4 °F 37.4 °F 100% 30.26 in 10.0 mi Calm Calm - N/A   Clear
3:35 AM 37.4 °F 37.4 °F 100% 30.25 in 7.0 mi Calm Calm - N/A   Clear
3:55 AM 37.4 °F 37.4 °F 100% 30.25 in 10.0 mi Calm Calm - N/A   Clear
4:15 AM 37.4 °F 37.4 °F 100% 30.25 in 7.0 mi Calm Calm - N/A   Clear
4:35 AM 37.4 °F 37.4 °F 100% 30.24 in 10.0 mi Calm Calm - N/A   Clear
4:55 AM 35.6 °F 35.6 °F 100% 30.24 in 7.0 mi Calm Calm - N/A   Clear
5:15 AM 37.4 °F 37.4 °F 100% 30.25 in 7.0 mi Calm Calm - N/A   Clear
5:35 AM 35.6 °F 35.6 °F 100% 30.23 in 7.0 mi Calm Calm - N/A   Clear
5:55 AM 35.6 °F 35.6 °F 100% 30.23 in 10.0 mi Calm Calm - N/A   Clear
6:15 AM 35.6 °F 35.6 °F 100% 30.23 in 7.0 mi Calm Calm - N/A   Clear
6:35 AM 35.6 °F 35.6 °F 100% 30.23 in 10.0 mi Calm Calm - N/A   Clear
7:15 AM 35.6 °F 35.6 °F 100% 30.23 in 7.0 mi Calm Calm - N/A   Clear
7:35 AM 35.6 °F 35.6 °F 100% 30.23 in 7.0 mi Calm Calm - N/A   Clear
7:55 AM 35.6 °F 35.6 °F 100% 30.22 in 5.0 mi Calm Calm - N/A   Clear
8:15 AM 37.4 °F 37.4 °F 100% 30.22 in 7.0 mi Calm Calm - N/A   Clear
8:35 AM 42.8 °F 42.8 °F 100% 30.23 in 7.0 mi Calm Calm - N/A   Clear
8:55 AM 44.6 °F 44.6 °F 100% 30.24 in 10.0 mi Calm Calm - N/A   Clear
9:15 AM 50.0 °F 50.0 °F 100% 30.23 in 7.0 mi Calm Calm - N/A   Scattered Clouds
9:35 AM 51.8 °F 51.8 °F 100% 30.24 in 7.0 mi SW 6.9 mph - N/A   Mostly Cloudy
10:15 AM 51.8 °F 51.8 °F 100% 30.24 in 5.0 mi WSW 5.8 mph - N/A   Overcast
10:35 AM 53.6 °F 51.8 °F 94% 30.23 in 7.0 mi SW 5.8 mph - N/A   Scattered Clouds
10:55 AM 55.4 °F 50.0 °F 82% 30.22 in 10.0 mi SW 6.9 mph - N/A   Clear
11:15 AM 57.2 °F 50.0 °F 77% 30.20 in 10.0 mi SSW 6.9 mph - N/A   Clear
11:35 AM 60.8 °F 51.8 °F 72% 30.19 in 10.0 mi SW 5.8 mph - N/A   Clear
11:55 AM 62.6 °F 51.8 °F 68% 30.17 in 10.0 mi SSW 6.9 mph - N/A   Clear
12:15 PM 64.4 °F 51.8 °F 64% 30.15 in 10.0 mi SW 10.4 mph - N/A   Clear
12:35 PM 62.6 °F 51.8 °F 68% 30.13 in 10.0 mi SW 6.9 mph 16.1 mph N/A   Clear
12:55 PM 64.4 °F 51.8 °F 64% 30.12 in 10.0 mi SSW 9.2 mph 16.1 mph N/A   Clear
1:35 PM 66.2 °F 53.6 °F 64% 30.10 in 10.0 mi SSW 5.8 mph 18.4 mph N/A   Clear
1:55 PM 68.0 °F 53.6 °F 60% 30.09 in 10.0 mi WSW 8.1 mph - N/A   Clear
2:15 PM 68.0 °F 53.6 °F 60% 30.09 in 10.0 mi SW 5.8 mph 16.1 mph N/A   Clear
2:35 PM 68.0 °F 53.6 °F 60% 30.08 in 10.0 mi SW 6.9 mph - N/A   Clear
2:55 PM 68.0 °F 53.6 °F 60% 30.08 in 10.0 mi SSW 5.8 mph - N/A   Clear
3:15 PM 69.8 °F 53.6 °F 56% 30.08 in 10.0 mi SSW 9.2 mph - N/A   Clear
3:35 PM 68.0 °F 53.6 °F 60% 30.08 in 10.0 mi SSW 10.4 mph 19.6 mph N/A   Clear
3:55 PM 66.2 °F 53.6 °F 64% 30.08 in 10.0 mi SW 4.6 mph - N/A   Clear
4:15 PM 66.2 °F 53.6 °F 64% 30.08 in 10.0 mi SSW 8.1 mph - N/A   Clear
4:35 PM 66.2 °F 55.4 °F 68% 30.08 in 10.0 mi SSW 5.8 mph - N/A   Scattered Clouds
4:55 PM 64.4 °F 55.4 °F 73% 30.07 in 10.0 mi SSW 5.8 mph - N/A   Scattered Clouds
5:15 PM 64.4 °F 55.4 °F 73% 30.07 in 10.0 mi SSW 6.9 mph - N/A   Scattered Clouds
5:35 PM 64.4 °F 55.4 °F 73% 30.06 in 10.0 mi SSW 3.5 mph - N/A   Clear
5:55 PM 64.4 °F 55.4 °F 73% 30.08 in 10.0 mi SSW 5.8 mph - N/A   Clear
6:15 PM 64.4 °F 55.4 °F 73% 30.09 in 10.0 mi Calm Calm - N/A   Scattered Clouds
6:35 PM 62.6 °F 55.4 °F 77% 30.09 in 10.0 mi Calm Calm - N/A   Overcast
6:55 PM 62.6 °F 55.4 °F 77% 30.08 in 10.0 mi South 3.5 mph - N/A   Overcast
7:15 PM 62.6 °F 55.4 °F 77% 30.08 in 10.0 mi Calm Calm - N/A   Mostly Cloudy
7:35 PM 62.6 °F 55.4 °F 77% 30.09 in 10.0 mi SSW 4.6 mph - N/A   Mostly Cloudy
7:55 PM 62.6 °F 55.4 °F 77% 30.09 in 10.0 mi SW 5.8 mph - N/A   Mostly Cloudy
8:15 PM 64.4 °F 55.4 °F 73% 30.09 in 10.0 mi SSW 5.8 mph - N/A   Overcast
8:35 PM 62.6 °F 55.4 °F 77% 30.09 in 10.0 mi SSW 4.6 mph - N/A   Overcast
8:55 PM 62.6 °F 55.4 °F 77% 30.09 in 10.0 mi SSW 4.6 mph - N/A   Overcast
9:15 PM 62.6 °F 55.4 °F 77% 30.08 in 10.0 mi SSW 4.6 mph - N/A   Scattered Clouds
9:35 PM 62.6 °F 55.4 °F 77% 30.08 in 10.0 mi SSW 3.5 mph - N/A   Clear
9:55 PM 60.8 °F 55.4 °F 82% 30.08 in 10.0 mi SW 4.6 mph - N/A   Clear
10:35 PM 60.8 °F 55.4 °F 82% 30.08 in 10.0 mi SW 4.6 mph - N/A   Mostly Cloudy
10:55 PM 60.8 °F 55.4 °F 82% 30.08 in 10.0 mi SW 3.5 mph - N/A   Scattered Clouds
11:15 PM 60.8 °F 55.4 °F 82% 30.09 in 10.0 mi SW 3.5 mph - N/A   Mostly Cloudy
11:35 PM 60.8 °F 55.4 °F 82% 30.08 in 10.0 mi SSW 3.5 mph - N/A   Scattered Clouds
11:55 PM 60.8 °F 55.4 °F 82% 30.08 in 10.0 mi Calm Calm - N/A   Clear